Regional Weather Roundup
Issued by NWS New Orleans/Baton Rouge, LA

Home | Current Version | Previous Version | Text Only | Print | Product List | Glossary On
Versions: 1 2 3 4 5 6 7 8 9 10 11 12 13 14 15 16 17 18 19 20 21 22 23 24 25 26 27 28 29 30 31 32 33 34 35 36 37 38 39 40 41 42 43 44 45 46 47 48 49 50
000
ASUS44 KLIX 171401
RWRLIX
NEW ORLEANS REGIONAL WEATHER ROUNDUP
NATIONAL WEATHER SERVICE NEW ORLEANS LA
900 AM CDT THU APR 17 2014

NOTE: "FAIR" INDICATES FEW OR NO CLOUDS BELOW 12,000 FEET WITH NO
      SIGNIFICANT WEATHER AND/OR OBSTRUCTIONS TO VISIBILITY.
      SKY/WX - SKY CONDITION AND SIGNIFICANT WEATHER.
      TMP - AIR TEMPERATURE.     DP    - DEWPOINT TEMPERATURE.
      RH  - RELATIVE HUMIDITY.   PRES  - PRESSURE.
      HI  - HEAT INDEX.          WCI   - WIND CHILL INDEX.

*  THESE STATIONS ARE NOT NWS OR FAA STATIONS AND ARE NOT UNDER
   NWS QUALITY CONTROL.

LAZ038-040-048-061>063-065>067-069-171500-
SOUTHEAST LOUISIANA

CITY           SKY/WX    TMP DP  RH WIND       PRES   REMARKS
N.O. AUDUBON     N/A     64 N/A N/A MISG        N/A
N.O. INTL ARPT PTSUNNY   62  54  74 NE12      30.17F
N.O. LAKEFRONT CLOUDY    59  53  80 NE14      30.18S
N.O. DOWNTOWN* PTSUNNY   61  48  63 NE9       30.18S
SLIDELL        CLOUDY    57  49  74 N7        30.19S
BATON ROUGE    PTSUNNY   58  49  72 NE9       30.18F
BOOTHVILLE     MOSUNNY   66  57  72 VRB5      30.16S
BELLE CHASSE   PTSUNNY   63  54  72 NE15      30.17S
BOGALUSA*        N/A     56  49  79 NE5       30.23S
GALLIANO*      NOT AVBL
NEW ROADS*     NOT AVBL
GONZALES*      PTSUNNY   58  51  78 NE10      30.17S
HAMMOND*       NOT AVBL
HOUMA*         NOT AVBL
PORT FOURCHON* CLOUDY    66  57  72 E12       30.15S

$$

MSZ070-080>082-171500-
SOUTHERN MISSISSIPPI

CITY           SKY/WX    TMP DP  RH WIND       PRES   REMARKS
MCCOMB         CLOUDY    53  46  77 VRB7      30.21F
GULFPORT       CLOUDY    61  52  72 NE8       30.20R
BILOXI         MOSUNNY   60  54  79 E9        30.20R
PASCAGOULA     CLOUDY    58  53  84 NE8       30.22R
STENNIS ARPT*  PTSUNNY   57  50  77 NE6       30.20R

$$

COASTAL OBSERVATIONS
LAKE AND NEARSHORE STATIONS

STATION/POSITION TIME  TEMP    WIND        PRES    WAVE
                       AIR SEA DIR/SP/G            HT/PER
                 (UTC) (F)     (DEG/KT/KT) (MB)    (FT/S)
PASCAGOULA       1300   58      50/ 12/ 14 1022.2
WAVELAND YACHT   1300   56 63   60/  9/ 12 1021.5
GRAND ISLE       1300   65 66   80/  7/ 11 1021.0
SOUTHWEST PASS   1300   66 58   90/ 12/ 12 1020.6
NEW CANAL        1300   59 62   60/ 13/ 15 1022.1
SHELL BEACH      1300   61 61   10/  6/  9 1021.5

OFFSHORE STATIONS

STATION/POSITION TIME  TEMP    WIND        PRES    WAVE
                       AIR SEA DIR/SP/G            HT/PER
                 (UTC) (F)     (DEG/KT/KT) (MB)    (FT/S)
64 S DAUPHIN ISL 1311   68 71   90/ 19/ 23 1021.4

$$




USA.gov is the U.S. government's official web portal to all federal, state and local government web resources and services.